Meteo Giornale » Osservazioni meteo Stati Uniti (USA) » Lihue
ore: 10:53 - Osservazioni Meteo Lihue
Lat. 21° 59' N Lon. 159° 20' W Alt. 45 metri s.l.m.
28 °C
Molto Nuvoloso
Temp. 24 Ore
24 °C
29 °C
Nord-Est
22.2 Km/h
Dew point 22 °C
Umidità 69 %
Visibilità 10 Km
Il sole sorge alle ore 06:20
Il sole tramonta alle ore 18:54
| Data e Ora | Cielo e Fenomeni | T °C | DP °C | Um. % | Pres. hPa | Vis. km | Vento km/h | |
|---|---|---|---|---|---|---|---|---|
| Oggi h: 10:53 | Molto Nuvoloso | 28 | 22 | 69 | 1018 | 10 | NE 22.2 | |
| Oggi h: 09:53 | Coperto | 27 | 21 | 69 | 1018 | 10 | NE 27.8 | |
| Oggi h: 09:13 | Coperto | 26 | 22 | 78 | 1018 | 10 | E/NE 29.6 | |
| Oggi h: 09:06 | Coperto | 26 | 22 | 78 | 1018 | 10 | E 31.5 | |
| Oggi h: 08:53 | Coperto | 27 | 21 | 69 | 1018 | 10 | E 29.6 | |
| Oggi h: 07:53 | Foschia | 24 | 22 | 88 | 1018 | 6 | NE 35.2 | |
| Oggi h: 06:53 | Molto Nuvoloso | 26 | 22 | 78 | 1017 | 14 | E/NE 27.8 | |
| Oggi h: 06:49 | Coperto | 26 | 22 | 78 | 1017 | 10 | E/NE 25.9 | |
| Oggi h: 05:53 | Coperto | 26 | 22 | 78 | 1016 | 10 | E/NE 31.5 | |
| Oggi h: 04:53 | Coperto | 26 | 21 | 73 | 1016 | 10 | E/NE 31.5 | |
| Oggi h: 03:53 | Coperto | 25 | 21 | 78 | 1016 | 10 | E/NE 37 | |
| Oggi h: 02:53 | Molto Nuvoloso | 24 | 22 | 88 | 1016 | 10 | E/NE 31.5 | |
| Oggi h: 01:53 | Molto Nuvoloso | 25 | 23 | 88 | 1017 | 13 | NE 33.3 | |
| Oggi h: 01:01 | Nuvoloso | 26 | 21 | 73 | 1017 | 10 | E/NE 29.6 | |
| Oggi h: 00:53 | Molto Nuvoloso | 26 | 22 | 78 | 1017 | 10 | E/NE 35.2 | |
| Ieri h: 23:53 | Sereno | 26 | 22 | 78 | 1018 | 10 | E/NE 29.6 | |
| Ieri h: 22:53 | Molto Nuvoloso | 26 | 22 | 78 | 1018 | 14 | E/NE 37 | |
| Ieri h: 21:53 | Nuvoloso | 26 | 21 | 73 | 1018 | 10 | NE 27.8 | |
| Ieri h: 20:53 | Molto Nuvoloso | 26 | 22 | 78 | 1018 | 14 | E/NE 22.2 | |
| Ieri h: 19:53 | Nuvoloso | 26 | 22 | 78 | 1017 | 10 | E/NE 25.9 | |
| Ieri h: 18:53 | Nuvoloso | 26 | 22 | 78 | 1017 | 10 | NE 29.6 | |
| Ieri h: 17:53 | Poco Nuvoloso | 27 | 21 | 69 | 1016 | 10 | NE 25.9 | |
| Ieri h: 16:53 | Nuvoloso | 28 | 21 | 65 | 1016 | 10 | NE 27.8 | |
| Ieri h: 15:53 | Molto Nuvoloso | 28 | 22 | 69 | 1016 | 10 | NE 25.9 | |
| Ieri h: 14:53 | Molto Nuvoloso | 29 | 21 | 62 | 1017 | 10 | E/NE 29.6 | |
| Ieri h: 13:53 | Nuvoloso | 29 | 22 | 66 | 1017 | 10 | E/NE 31.5 | |
| Ieri h: 12:53 | Molto Nuvoloso | 29 | 21 | 62 | 1018 | 10 | E/NE 27.8 | |
| Ieri h: 11:53 | Poco Nuvoloso | 29 | 22 | 66 | 1018 | 10 | NE 25.9 | |



